www.pogodaiklimat.ru

Погода и климат >> Архив погоды >> Россия >> Якутия >> Сухана


ПОГОДА в Сухане

  • Прогноз погоды в Сухане
  • Монитор погоды в Сухане
  • Климат города

АРХИВ ПОГОДЫ в Сухане

Время (UTC), дата Ветер
(напр.,м/с)
 
Видим.   Явления Облачность Т
(С)
Тd
(С)
f
(%)
Тe
(С)
Тes
(С)
Комфортность P
(гПа)
Po
(гПа)
Тmin
(С)
Tmax
(С)
R
(мм)
R24
(мм)
S
(см)
18 16.10 штиль 0 50 км 10/10 1000 м
[Sc]
-10.1 -12.1 85 -10 -10 1031.7 1021.4
21 16.10 штиль 0 50 км 10/10 1000 м
[Sc]
-9.7 -11.8 85 -10 -10 1030.2 1020.0
00 17.10 штиль 0 50 км 10/5 1000 м
[Sc As op]
-9.6 -11.7 85 -10 -10 1028.8 1018.6 -10.2 17
03 17.10 штиль 0 50 км 10/6 1000 м
[Sc As op]
-9.1 -11.1 85 -10 -10 1027.7 1017.5
06 17.10 штиль 0 20 км слабый снег 10/4 1000 м
[Sc As op]
-7.2 -8.1 93 -8 -8 1026.4 1016.4
09 17.10 СЗ 1 20 км слабый снег 10/0
[As op]
-7.5 -8.1 95 -10 -10 1026.2 1016.2
12 17.10 ЮЗ 1 20 км слабый снег 10/5 600 м
[Sc As op]
-7.6 -8.1 96 -10 -10 1024.7 1014.7 -7.2 0.0
15 17.10 штиль 0 10 км слабый снег 10/5 600 м
[Sc As op]
-7.6 -8.1 96 -8 -8 1023.9 1013.9
18 17.10 С 2 20 км слабый снег 10/3 600 м
[Sc As op]
-8.6 -9.7 92 -13 -13 1023.3 1013.1
21 17.10 С 2 20 км слабый снег 10/4 600 м
[Sc As op]
-9.5 -10.7 91 -14 -14 1023.1 1012.9
00 18.10 С 2 20 км слабый снег 10/3 600 м
[Sc As op]
-10.2 -11.5 90 -15 -15 1022.5 1012.3 -10.2 0.5 18
03 18.10 С 2 20 км слабый снег 9/8 600 м
[Sc As trans]
-9.7 -11.8 85 -14 -14 1023.3 1013.1 -10.4
06 18.10 СВ 2 50 км {снег} 9/9 600 м
[Sc]
-8.4 -10.7 83 -13 -13 1023.3 1013.1
09 18.10 СВ 2 50 км 10/10 600 м
[Sc]
-8.2 -10.5 83 -13 -13 1023.5 1013.3
12 18.10 СВ 1 20 км слабый снег 10/10 600 м
[Sc]
-9.2 -11.7 82 -12 -12 1023.9 1013.7 -8.2 0.2
15 18.10 СВ 1 20 км слабый снег 10/10 600 м
[Sc]
-11.1 -12.4 90 -13 -13 1024.5 1014.3
18 18.10 С 1 50 км {снег} 10/10 600 м
[Sc]
-10.8 -12.1 90 -13 -13 1025.2 1015.0
21 18.10 СВ 1 50 км 10/10 600 м
[Sc]
-11.2 -12.5 90 -13 -13 1027.4 1016.2
00 19.10 Ю 1 20 км слабый снег 10/10 1000 м
[Sc]
-11.4 -12.7 90 -14 -14 1026.8 1016.6 -12.0 0.2 18
03 19.10 Ю 1 50 км 10/10 1000 м
[Sc]
-10.8 -12.8 85 -13 -13 1025.7 1015.5
06 19.10 Ю 1 20 км слабый снег 10/10 1000 м
[Sc]
-10.4 -13.2 80 -13 -13 1027.7 1017.5
09 19.10 Ю 1 20 км слабый снег 10/10 1000 м
[Sc]
-10.4 -13.2 80 -13 -13 1028.2 1018.0
12 19.10 штиль 0 20 км слабый снег 10/10 1000 м
[Sc]
-10.5 -12.5 85 -11 -11 1028.9 1018.7 -10.2 0.3
18 19.10 ЮЗ 1 50 км {снег} 10/10 1000 м
[Sc]
-10.7 -12.7 85 -13 -13 1029.3 1019.1
21 19.10 Ю 1 50 км 10/10 1000 м
[Sc]
-11.0 -12.3 90 -13 -13 1028.8 1018.6
00 20.10 Ю 1 20 км слабый снег 10/10 600 м
[Sc]
-11.1 -11.7 95 -13 -13 1028.6 1018.4 -11.2 0.0 17
03 20.10 Ю 1 20 км слабый снег 10/6 600 м
[St As op]
-12.0 -12.6 95 -14 -14 1028.2 1018.0 -12.0
06 20.10 СВ 1 50 км {снег} 8/5 600 м
[Sc As trans]
-12.5 -14.5 85 -15 -15 1028.1 1017.9
09 20.10 С 1 50 км 3/3 1000 м
[Sc]
-15.4 -17.3 85 -18 -18 1026.2 1015.8
12 20.10 С 1 50 км 8/0
[As trans]
-18.5 -20.4 85 -21 -21 1025.3 1014.7 -11.0 0.2
15 20.10 Ю 2 50 км 3/0
[As trans]
-14.1 -16.1 85 -19 -19 1024.1 1013.7
18 20.10 В 1 50 км ясно -15.2 -17.2 85 -18 -18 1023.7 1013.3
21 20.10 Ю 2 20 км слабый снег 10/0
[As op]
-14.7 -17.4 80 -20 -20 1023.7 1013.3
00 21.10 ЮВ 2 50 км слабый снег 10/10 1000 м
[Sc]
-13.5 -17.0 75 -18 -18 1022.6 1012.2 -18.5 0.2 16
03 21.10 Ю 2 20 км слабый снег 8/0
[Ac As]
-12.8 -17.1 70 -17 -17 1021.9 1011.5
06 21.10 Ю 3 50 км {снег} 6/6 600 м
[Sc]
-11.0 -15.4 70 -17 -17 1021.2 1011.0
09 21.10 Ю 3 50 км 9/5 1000 м
[Sc Ac As]
-12.3 -16.6 70 -18 -18 1021.1 1010.9
12 21.10 Ю 3 50 км 3/3 1000 м
[Sc]
-12.8 -17.1 70 -19 -19 1020.5 1010.1 -11.0 0.2
15 21.10 Ю 4 50 км позёмок {метель} 3/3 1000 м
[Sc]
-13.2 -17.5 70 -21 -21 1019.4 1009.1
18 21.10 Ю 2 50 км {метель} 8/8 1000 м
[Sc]
-12.8 -17.1 70 -17 -17 1018.8 1008.5
21 21.10 Ю 2 20 км слабый снег 6/4 1000 м
[Sc As trans]
-13.4 -17.7 70 -18 -18 1017.2 1006.9
00 22.10 В 3 50 км {снег} 6/4 1000 м
[Sc As trans]
-15.2 -18.6 75 -22 -22 1015.7 1005.4 -15.2 0.3 16
03 22.10 В 2 20 км слабый снег 8/6
[Sc As trans]
-13.6 -17.9 70 -18 -18 1013.8 1003.4
06 22.10 В 3 50 км {снег} 4/3 1000 м
[Sc As trans]
-12.1 -13.7 88 -18 -18 1011.0 1000.9
09 22.10 СВ 1 50 км 6/6 1000 м
[Sc]
-13.7 -18.0 70 -16 -16 1010.4 1000.1
12 22.10 С 2 20 км слабый снег 8/0
[As trans Cs]
-14.4 -17.1 80 -19 -19 1009.3 999.1 -12.1 0.2
15 22.10 С 2 50 км {снег} ясно -15.6 -18.3 80 -21 -21 1008.6 998.3
18 22.10 штиль 0 50 км {снег} ясно -18.9 -21.5 80 -19 -19 1008.6 998.2
21 22.10 С 2 50 км ясно -21.4 -23.9 80 -27 -27 1009.1 998.7
00 23.10 штиль 0 50 км ясно -25.4 -27.8 80 -25 -25 1009.1 998.5 -25.4 16
03 23.10 штиль 0 50 км ясно -23.1 -25.5 81 -23 -23 1008.9 998.3
06 23.10 штиль 0 50 км ясно -18.5 -21.8 75 -19 -18 1007.9 997.5
09 23.10 штиль 0 50 км 3/0
[Cs]
-20.9 -23.4 80 -21 -21 1007.4 997.0
12 23.10 штиль 0 50 км ясно -24.1 -26.6 80 -24 -24 1006.9 996.3 -18.5
15 23.10 С 1 50 км 3/0
[Cs]
-25.2 -28.4 75 -29 -29 1006.1 995.5

 

Местоположение метеостанции Сухана (Якутия, Россия): широта 68.62 долгота 118.30 высота над уровнем моря 77 м.

В архиве по умолчанию представлена погода в Сухане за последнюю неделю. Архивные данные за месяц целиком и за предыдущие месяцы, начиная с января 2011 года, Вы можете получить, выбрав интересующий диапазон дат из раскрывающегося списка и нажав кнопку "Ввод!".

Внимание! Время в таблицах - всемирное. Для получения местного времени необходимо прибавить поправку, которая в Сухане равна 9 ч.

Смотрите также архив погоды в соседних городах и на ближайших метеорологических станциях:

Погода в Джарджане (Якутия, Россия) (231 км)
Погода в Оленеке (Якутия, Россия) (240 км)
Погода в Джалинде (Якутия, Россия) (241 км)
Погода в Эйке (Якутия, Россия) (291 км)
Погода в Жиганске (Якутия, Россия) (294 км)
Погода в Шелагонцах (Якутия, Россия) (316 км)
Погода в Полярном (Якутия, Россия) (326 км)
Погода в Саскылахе (Якутия, Россия) (406 км)
Погода в Тюмяти (Якутия, Россия) (415 км)
Погода в Кюсюре (Якутия, Россия) (419 км)

Пояснения к столбцам:

Ветер - указаны скорость ветра в м/с - средняя за 10 мин, порывы в срок и между сроками (в фигурных скобках) и направление, откуда дует ветер: С - северный, СВ - северо-восточный, В - восточный, ЮВ - юго-восточный, Ю - южный, ЮЗ - юго-западный, З - западный, СЗ - северо-западный.
Видимость - горизонтальная дальность видимости в метрах или километрах. При видимости от 1 до 10 км при отсутствии осадков обычно наблюдается дымка, при ухудшении видимости до 1 км и менее - туман. В сухую погоду видимость может ухудшаться дымом, пылью или мглою.
Явления - указаны атмосферные явления, наблюдавшиеся в срок или в последний час перед сроком; фигурными скобками обозначены явления, наблюдавшиеся между сроками (за 1-3 часа до срока); квадратными скобками обозначены град или гололедные отложения с указанием их диаметра в мм.
Облачность - указаны через наклонную черту общая и нижняя облачность в баллах и высота нижней границы облаков в метрах; квадратными скобками обозначены формы облаков: Ci - перистые, Cs - перисто-слоистые, Cc - перисто-кучевые, Ac - высококучевые, As - высокослоистые, Sc - слоисто-кучевые, Ns - слоисто-дождевые, Cu - кучевые, Cb - кучево-дождевые. Подробнее классификацию облаков см. в Атласе облаков (PDF).
T - Температура воздуха - температура, измеренная на высоте 2 м над землей.
Td - Температура точки росы - температура, при понижении до которой содержащийся в воздухе водяной пар достигнет насыщения.
f - Относительная влажность воздуха - влажноcть воздуха, измеренная на высоте 2 м над землей.
Te - Эффективная температура - температура, которую ощущает одетый по сезону человек в тени. Характеристика душности погоды. При расчете учитывается влияние влажности воздуха и скорости ветра на теплоощущения человека.
Tes - Эффективная температура на солнце - температура, которую ощущает человек, с поправкой на солнечный нагрев. Характеристика знойности погоды. Зависит от высоты солнца над горизонтом, облачности и скорости ветра. Ночью, в пасмурную погоду, а также при ветре 12 м/с и более поправка равна нулю.
P - Атмосферное давление - приведенное к уровню моря атмосферное давление.
Po - Атмосферное давление - измеренное на уровне метеостанции атмосферное давление.
Tmin - Минимальная температура - минимум температуры воздуха на высоте 2 м над землей.
Tmax - Максимальная температура - максимум температуры воздуха на высоте 2 м над землей.
R - Количество осадков - Количество выпавших осадков за период времени, мм. При наведении курсора мыши на число - период времени, за который выпало указанное количество осадков.
R24 - Количество осадков - Количество выпавших осадков за 24 часа, мм.
S - Снежный покров - Высота снежного покрова, см. При наведении курсора мыши на число - состояние снежного покрова и степень покрытия местности в баллах.